Вернуться в каталог

FENGYUN 1C DEB

АктивенSSO
NORAD 46468·DEBRIS·🇨🇳 China

Запущен May 10, 1999 с Taiyuan Satellite Launch Center

Loading…

Ближайшие Пролёты (ближайшие 24 часа)

TLE

СвежийSource: Space-Track

Эпоха: Sep 14, 2026, 11:56 UTC

1 46468U 99025EZK 26257.49760730  .00002607  00000-0  10843-2 0  9994
2 46468  98.8805 353.8718 0045156 153.1196 266.9305 14.26710543777465

Отслеживайте FENGYUN 1C DEB в реальном времени с AllMySat

Download on the App Store